Temperature
17 17 17 18 18 18 20 21 22 21 21 20 20 20 19 17 16 15 13 13 14 14 14 14 14 14 14 14 14 15 14 14 14 14 14 14 14 15 14 14 14 14 14 15 15 15 15 15 15
17 17 17 18 18 19 20 20 20 20 20 19 19 19 18 15 14 13 13 13 13 14 14 14 14 14 14 14 14 14 14 14 14 14 14 14 14 14 14 14 14 14 14 14 15 15 15 15 15
17 17 18 18 19 19 20 20 19 19 19 19 18 17 15 14 12 12 12 13 13 13 13 14 14 14 14 14 14 14 14 14 14 14 14 14 14 14 14 14 14 14 14 14 14 15 15 15 15
16 17 18 18 18 19 19 19 19 19 19 18 17 15 13 12 11 11 12 12 12 13 13 13 13 14 13 13 13 14 14 14 14 14 14 14 14 14 14 14 14 14 14 14 14 14 14 15 15
16 18 18 18 18 19 19 19 19 18 18 17 16 15 12 11 11 12 12 12 12 12 12 13 13 13 13 13 13 13 13 13 14 14 14 14 14 14 14 14 14 14 14 14 14 14 14 14 14
17 18 17 18 18 19 18 18 18 17 17 16 15 15 11 11 11 11 11 11 11 12 12 12 13 13 13 13 13 13 13 13 13 13 13 13 13 13 13 13 14 14 14 14 14 14 14 14 14
17 17 17 18 18 18 18 17 17 16 15 14 14 14 11 10 10 10 11 11 11 11 12 12 12 12 12 12 12 12 13 13 13 13 13 13 13 13 13 13 13 13 13 13 14 14 13 13 14
16 16 17 18 17 17 17 16 15 15 13 12 12 12 10 9 10 10 10 11 11 11 11 11 12 12 12 12 12 12 12 12 12 12 12 12 12 12 12 12 13 13 13 13 13 13 13 13 13
16 15 15 16 17 15 15 15 14 13 12 11 10 10 9 9 9 10 10 10 11 11 11 11 11 11 11 11 11 11 11 11 11 11 11 12 12 12 12 12 12 12 13 13 13 13 13 13 13
15 14 14 15 15 14 14 13 13 12 12 11 10 9 9 9 9 9 9 9 10 10 10 10 10 10 10 10 10 10 10 10 11 11 11 11 11 11 11 12 12 12 12 12 12 12 12 12 12
15 14 14 14 14 13 13 12 12 12 10 10 9 8 8 8 8 8 8 8 8 9 9 9 9 10 10 10 10 10 10 10 10 10 10 11 11 11 11 11 11 11 11 12 12 12 12 12 12
14 13 13 13 12 12 12 11 10 9 9 9 8 8 8 7 7 7 7 7 7 8 8 9 9 9 9 9 10 9 10 10 10 10 10 10 10 10 10 11 11 11 11 11 11 11 11 11 11
13 12 12 11 11 11 10 9 9 8 8 8 8 7 7 7 6 6 6 6 7 7 8 8 8 9 9 9 9 9 9 9 9 9 10 10 10 10 10 10 10 10 10 11 11 10 11 11 11
13 12 11 11 11 10 9 9 8 8 8 7 7 6 6 6 5 6 6 6 6 6 7 7 8 8 8 8 8 8 8 8 9 9 9 9 9 9 9 9 9 10 10 10 10 10 10 10 10
12 11 11 11 11 10 10 8 8 8 7 7 6 6 5 5 5 5 5 5 5 6 6 7 7 7 8 8 8 8 8 8 8 8 9 9 9 9 9 9 9 9 9 9 10 10 10 10 10
12 12 11 11 11 11 9 8 8 7 7 7 6 5 5 5 4 4 4 4 5 5 6 6 6 7 7 7 7 7 7 7 8 8 8 8 8 8 8 8 8 9 9 9 9 9 9 10 10
12 12 12 11 11 11 9 8 7 7 7 7 6 5 5 4 4 4 4 4 4 5 5 5 6 6 6 6 7 6 6 7 7 7 7 8 8 8 8 8 8 8 8 8 8 8 9 9 9
11 11 12 11 10 10 8 7 7 7 7 6 5 5 4 4 3 3 3 3 3 4 4 4 5 5 5 6 6 6 6 6 6 6 7 7 7 7 7 7 7 7 7 8 8 8 8 8 8
11 11 10 10 9 9 8 7 7 7 6 5 5 4 4 3 3 2 2 3 3 3 4 4 4 4 5 5 5 5 5 5 5 6 6 6 6 6 6 6 7 7 7 7 7 7 7 8 8
10 10 9 9 9 8 7 7 7 6 5 5 4 4 3 2 2 2 2 2 2 2 3 3 3 3 3 3 4 4 4 4 5 5 5 5 5 5 6 6 6 6 6 6 6 6 7 7 7
9 9 8 8 8 8 7 6 6 6 5 4 4 3 2 2 1 1 1 1 1 2 2 2 2 2 3 3 3 3 3 4 4 4 4 4 5 5 5 5 5 5 5 5 6 6 6 6 6
8 8 8 7 6 6 7 5 6 6 4 4 3 2 2 1 1 1 0 0 1 1 1 1 2 2 2 2 2 2 2 3 3 3 3 3 4 4 4 4 4 4 4 5 5 5 5 5 6
7 7 7 7 6 6 7 6 5 5 4 3 2 2 1 1 0 0 -0 -0 -0 0 0 1 1 1 1 1 1 2 2 2 2 2 2 3 3 3 3 3 3 4 4 4 4 4 4 5 5
7 7 7 7 6 5 7 6 5 4 4 3 2 2 1 1 0 -0 -1 -1 -1 -0 -0 0 0 0 0 0 1 1 1 1 1 2 2 2 2 3 3 3 3 3 3 3 4 4 4 4 4
7 6 5 5 5 5 7 6 4 4 3 3 2 1 1 0 -0 -1 -1 -1 -1 -1 -1 -1 -1 -1 -0 -0 -0 0 0 0 1 1 1 1 1 2 2 2 2 2 2 3 3 3 3 4 4
6 6 5 5 5 6 6 5 3 3 3 2 2 1 1 0 -0 -1 -1 -2 -2 -2 -2 -2 -1 -1 -1 -1 -1 -1 -0 -0 -0 -0 -0 0 1 1 1 1 1 2 2 2 2 3 3 3 3
6 5 5 4 4 4 5 4 2 2 2 2 1 1 0 -0 -1 -1 -2 -2 -2 -2 -2 -2 -2 -2 -2 -1 -1 -1 -1 -1 -1 -1 -1 -0 -0 0 0 1 1 1 1 2 2 2 2 2 3
5 5 4 3 3 4 5 5 3 1 1 1 0 0 -0 -1 -1 -1 -2 -2 -2 -3 -3 -2 -2 -2 -2 -2 -2 -2 -2 -2 -2 -1 -1 -1 -1 -0 -0 0 0 1 1 1 1 1 1 2 2
4 4 4 4 4 3 3 3 2 2 1 0 0 0 -0 -1 -1 -2 -2 -3 -3 -3 -3 -3 -3 -3 -2 -2 -2 -2 -2 -2 -2 -2 -2 -2 -1 -1 -1 -1 -0 -0 0 0 0 1 1 1 1
4 4 3 2 2 3 2 2 2 1 1 1 0 -0 -1 -1 -2 -2 -3 -3 -3 -3 -3 -3 -3 -3 -3 -3 -3 -3 -3 -3 -3 -2 -2 -2 -2 -2 -1 -1 -1 -1 -1 -0 -0 0 0 0 1
Wind_Speed
14 11 5 3 3 4 3 1 3 5 5 6 7 6 7 8 6 6 2 6 7 6 7 7 8 8 8 8 8 8 8 8 8 8 8 8 8 8 8 9 9 9 9 9 10 10 10 10 10
12 7 4 3 3 4 1 3 5 6 6 5 5 6 7 8 8 5 4 7 7 7 9 9 10 8 9 9 8 8 8 8 7 7 7 7 7 7 8 8 8 8 9 9 9 9 9 9 9
9 6 3 3 3 2 3 6 8 7 7 5 4 7 5 6 6 5 5 6 7 9 9 10 11 10 10 9 9 9 8 8 8 7 7 7 7 7 7 7 7 8 8 8 8 8 8 8 8
5 3 3 3 2 3 4 6 6 5 5 6 5 6 6 8 6 6 6 6 6 8 9 10 11 11 10 11 9 9 8 8 8 7 7 7 7 7 7 7 7 7 7 7 7 7 7 7 7
4 3 3 3 2 2 5 7 5 3 3 5 5 4 6 7 10 8 7 7 7 7 9 10 10 10 10 10 10 9 8 7 8 7 7 6 6 7 7 7 7 6 6 6 6 6 6 6 6
3 3 3 4 3 3 4 5 4 4 4 6 4 3 5 7 10 9 7 7 8 8 10 10 10 10 10 9 10 9 8 7 7 7 7 7 6 6 6 6 6 6 5 5 5 5 5 5 5
3 3 3 2 1 2 4 4 5 4 6 6 5 3 5 8 8 7 7 8 10 11 10 10 9 9 8 8 8 9 8 8 7 7 7 6 5 5 5 6 6 6 5 5 4 4 4 4 4
4 3 3 2 1 1 4 4 5 7 5 6 6 4 4 5 6 6 7 8 9 10 11 11 10 9 8 7 6 7 7 8 8 7 7 6 5 4 4 5 5 5 5 5 4 3 3 3 2
3 2 1 2 1 3 5 4 5 6 5 6 6 7 6 6 6 7 8 8 9 9 9 10 10 11 10 7 5 5 6 7 7 7 6 5 4 4 4 5 5 4 4 4 3 2 2 2 1
1 1 2 4 6 5 6 6 4 3 5 4 6 8 8 7 7 8 8 8 8 8 8 8 10 10 10 8 6 5 5 5 6 6 6 4 4 4 4 5 4 3 3 2 1 1 1 2 2
1 1 3 5 7 5 4 5 7 3 4 4 5 6 7 7 7 8 8 8 7 7 7 8 9 10 9 8 7 6 5 5 5 5 6 5 5 5 5 4 3 3 2 1 0 1 2 2 2
1 3 3 4 5 4 3 2 5 5 3 6 8 7 7 8 8 8 8 8 8 8 9 8 9 9 9 9 6 6 5 5 5 5 5 5 4 4 3 3 2 1 1 1 1 2 2 1 1
2 1 3 5 6 5 6 4 2 2 3 5 6 7 7 7 7 6 6 7 7 8 8 8 9 8 9 8 7 6 6 5 5 5 6 6 4 4 3 3 3 3 3 2 2 2 2 1 1
4 4 2 3 2 3 4 2 1 0 3 3 4 5 6 6 6 6 7 7 8 8 8 8 9 9 9 7 7 6 6 6 5 5 6 6 5 4 4 3 3 3 4 4 3 3 2 1 1
4 3 2 2 3 3 3 1 1 1 3 3 3 4 5 6 6 6 6 6 7 7 7 8 8 9 9 8 7 6 7 6 6 5 6 6 6 5 4 3 3 3 5 5 4 3 3 2 1
5 4 2 2 3 3 2 2 2 3 3 2 2 3 4 5 6 6 6 6 6 7 7 7 8 8 8 7 8 7 7 7 6 6 6 7 7 6 5 3 3 4 4 3 2 2 2 2 1
4 3 3 2 2 2 2 2 2 3 2 2 2 2 3 5 6 6 7 6 6 6 7 7 8 8 8 8 8 7 7 6 6 6 6 6 7 6 5 4 4 4 3 2 2 2 1 1 1
2 3 3 1 1 0 2 3 2 2 2 2 2 2 3 4 5 6 6 6 6 6 6 7 7 8 8 7 6 5 5 6 6 6 6 7 6 6 5 4 4 4 2 2 2 2 2 1 1
6 5 6 4 2 2 4 5 4 2 2 2 2 2 3 3 4 5 5 6 7 8 8 7 7 7 7 5 4 4 4 4 4 6 8 8 7 6 5 4 4 4 2 2 2 2 1 1 1
5 6 6 3 1 3 5 6 4 2 3 3 3 2 3 4 5 6 6 6 6 6 7 7 7 7 6 5 3 3 3 3 3 6 6 7 7 7 5 4 3 3 2 2 2 2 1 1 1
4 3 5 5 5 5 5 6 5 5 5 4 3 3 3 3 5 5 6 5 5 6 6 7 7 7 6 7 4 4 3 3 3 4 4 6 7 7 6 5 4 3 2 2 2 2 2 2 2
3 3 5 5 5 4 3 5 3 5 5 4 3 2 2 3 4 4 5 6 5 5 5 6 7 7 7 7 5 5 4 4 4 4 4 6 6 6 6 5 5 3 3 3 3 2 2 2 3
3 5 7 7 7 6 6 5 3 4 4 3 3 2 2 2 3 3 4 4 5 5 5 5 6 7 7 7 6 5 4 4 4 5 5 4 5 6 6 5 5 4 3 3 3 3 3 3 3
4 5 7 6 4 6 7 6 3 3 3 4 3 2 2 2 2 2 3 4 4 5 5 5 6 6 6 6 6 5 6 6 6 6 5 5 4 4 6 5 5 4 4 4 4 4 4 3 3
3 3 3 2 3 5 2 3 2 3 4 5 4 3 2 1 2 3 4 4 5 6 6 6 6 6 7 7 7 6 5 5 5 6 5 5 4 4 5 6 5 5 4 4 4 4 5 4 4
4 2 1 3 4 4 3 3 2 6 6 6 5 3 2 1 2 3 3 3 4 5 6 6 6 6 7 7 7 6 6 4 4 5 5 5 5 5 6 6 6 6 5 5 4 4 5 4 4
3 1 1 2 5 5 5 2 3 4 4 3 3 2 2 2 3 3 3 3 4 5 5 6 6 7 7 7 7 6 6 6 6 6 5 4 5 6 7 7 6 6 6 5 5 4 5 5 5
3 3 1 2 3 5 5 3 1 2 1 1 2 2 3 3 4 3 3 3 4 4 4 5 6 6 6 6 6 7 6 6 6 6 6 5 6 7 7 7 7 6 6 6 5 5 5 6 6
3 2 3 3 3 3 5 3 2 3 3 2 2 3 3 4 4 3 3 3 3 4 4 5 6 7 6 6 7 7 7 6 7 6 6 6 6 7 7 7 7 7 7 6 6 6 6 7 6
1 2 2 3 5 4 5 4 3 5 3 1 2 3 3 3 3 3 4 4 4 4 5 5 6 6 7 7 7 8 7 7 7 7 7 7 7 7 7 7 7 8 7 6 7 7 7 7 7
Wind_Direction
300 274 259 261 245 233 231 73 56 63 52 44 34 34 47 43 39 84 34 11 28 51 63 64 63 71 76 75 71 70 70 69 70 73 75 74 75 75 73 70 73 74 74 75 74 75 75 75 74
297 292 265 243 244 238 163 89 72 58 69 67 46 41 54 61 58 71 22 2 22 52 59 54 53 65 72 72 69 70 68 66 69 73 74 71 71 72 73 69 71 73 74 76 76 75 77 77 77
280 270 267 252 252 283 70 62 74 74 70 61 58 48 46 45 44 34 9 359 33 53 58 54 52 58 63 68 69 66 67 66 65 69 71 72 70 69 72 71 71 75 75 77 78 77 77 77 79
283 245 242 249 252 29 48 63 68 90 79 50 64 79 80 47 26 20 8 19 46 54 58 57 52 54 59 59 63 66 66 65 61 61 69 70 68 70 68 68 72 77 78 78 79 81 78 78 81
247 259 238 224 220 65 47 55 63 66 89 64 56 78 84 45 33 31 23 25 44 49 56 60 50 51 54 57 56 58 62 63 60 57 61 65 68 68 69 66 67 74 82 82 82 84 81 83 83
269 253 242 220 163 108 68 41 46 56 64 58 53 82 93 47 30 24 29 28 36 44 49 55 47 50 52 55 54 51 55 60 60 58 58 59 63 69 70 69 67 66 74 82 88 85 87 86 83
298 277 256 235 145 89 66 46 31 42 50 37 12 54 96 36 22 26 33 34 36 38 42 43 37 39 44 50 53 53 53 57 58 58 56 54 58 67 73 73 73 69 67 75 86 91 93 96 87
316 300 260 256 175 67 57 55 41 39 47 34 21 37 62 21 19 35 41 37 35 35 32 29 25 24 27 36 48 54 53 55 56 59 58 61 61 61 69 73 76 73 68 69 77 89 100 108 110
301 286 284 341 22 78 62 64 55 52 54 56 48 51 60 57 42 44 41 31 29 28 24 21 17 15 11 20 34 52 58 61 60 58 56 62 57 55 60 67 73 74 76 78 76 75 107 121 148
316 293 12 9 26 68 58 51 36 66 54 59 63 60 64 57 51 45 38 29 23 18 16 15 14 11 9 11 22 36 46 53 52 51 41 33 35 45 53 66 58 64 75 84 89 99 167 192 215
2 55 61 31 43 54 57 37 19 45 25 26 51 62 59 52 47 42 36 31 23 16 15 13 10 9 11 10 13 19 29 37 37 42 32 27 37 45 48 50 47 54 59 56 349 236 243 228 209
91 40 51 45 48 49 51 41 27 30 39 41 49 62 62 53 45 38 31 28 22 18 15 9 8 8 7 8 8 16 22 27 25 23 30 30 27 30 27 33 16 15 347 321 280 275 278 270 230
153 130 73 76 74 74 74 68 60 23 53 57 57 60 63 55 44 38 34 32 28 21 11 8 5 7 5 7 6 12 14 22 20 18 18 23 21 12 4 12 6 356 342 331 314 315 324 326 345
91 102 115 129 130 113 95 74 73 191 96 77 58 59 60 55 44 35 30 27 21 17 10 7 5 8 7 7 5 7 6 17 21 16 14 14 16 10 0 1 5 355 340 335 341 350 352 1 13
136 153 180 196 169 145 129 26 189 146 117 103 71 58 57 56 46 38 32 25 16 12 12 6 3 7 10 7 3 4 4 16 19 10 9 10 8 6 359 1 1 353 345 347 357 359 7 8 18
214 211 205 157 169 161 175 239 118 105 130 147 105 67 58 56 48 35 30 27 17 13 13 6 5 5 9 7 2 2 4 14 14 8 7 9 5 2 3 2 354 348 349 358 356 349 344 341 349
213 245 239 174 144 169 203 226 145 131 149 157 114 77 59 52 43 34 29 26 19 16 14 7 7 5 8 8 4 4 6 11 8 6 6 7 2 359 359 357 349 344 350 355 333 331 339 345 348
300 290 299 283 117 322 224 217 210 186 180 148 111 83 54 48 43 35 30 26 21 17 17 12 9 7 8 10 6 4 4 2 4 2 3 3 358 352 353 355 344 350 349 333 330 327 338 339 352
318 308 305 320 24 337 252 245 235 227 179 141 112 84 58 45 47 38 34 29 25 19 15 13 10 5 6 8 6 355 351 344 350 357 1 358 350 346 352 351 348 349 334 319 320 331 339 316 352
312 304 307 324 2 298 266 259 229 182 146 130 116 91 59 37 25 28 29 27 25 17 9 8 8 3 3 354 349 337 329 326 343 353 351 352 347 342 341 349 342 340 324 318 323 330 311 281 287
303 306 314 312 314 263 271 270 200 161 135 117 96 76 65 39 24 18 17 17 18 13 7 0 359 360 357 352 352 350 344 347 351 346 340 344 342 339 338 338 341 337 326 299 294 291 284 271 269
303 351 319 297 297 273 229 276 219 165 147 139 124 91 58 40 27 18 14 8 9 7 3 359 357 358 358 355 353 352 348 338 328 326 321 329 336 338 335 336 339 331 321 298 287 283 275 268 265
316 322 293 277 272 280 247 250 250 159 173 165 149 123 76 45 28 15 11 2 4 2 359 355 356 357 355 354 350 347 340 329 323 323 321 322 330 335 335 335 334 331 320 304 289 277 267 261 257
304 292 270 252 260 263 231 219 246 188 179 148 145 129 97 55 22 6 3 5 4 2 358 356 355 352 351 350 348 345 340 335 332 330 326 323 317 323 328 324 327 322 317 303 297 278 264 257 257
311 329 332 299 229 245 216 220 231 87 88 116 128 123 107 52 10 359 2 2 360 359 357 352 351 349 347 346 346 340 336 330 324 322 319 318 315 310 309 318 313 312 307 303 299 285 271 254 245
293 304 263 273 280 305 305 240 151 91 78 81 87 89 73 23 4 357 357 359 355 353 352 352 349 345 343 342 339 335 332 324 316 316 314 309 304 301 307 308 302 297 294 291 291 281 274 264 246
308 269 306 290 290 278 253 185 115 95 89 84 79 57 19 1 358 349 353 357 354 348 346 347 344 337 338 338 333 328 329 327 319 314 311 307 309 309 309 306 299 291 287 282 277 272 271 264 251
296 325 308 247 279 281 276 264 196 162 172 52 23 5 360 349 340 347 349 348 346 340 338 341 336 333 329 331 328 326 324 321 318 314 313 310 311 310 306 300 296 291 282 276 267 270 268 261 251
195 234 246 260 260 267 288 285 63 108 104 56 3 352 340 338 338 340 338 336 338 340 340 336 333 334 329 327 324 321 318 318 318 312 311 313 312 307 299 299 292 286 280 274 264 260 261 258 256
320 251 222 232 265 255 271 277 65 81 78 56 2 350 344 335 336 339 334 334 339 337 334 331 329 328 326 323 319 315 316 320 319 315 314 314 309 307 302 298 293 285 282 275 266 261 256 252 250
Height
1506 1507 1509 1511 1513 1514 1512 1506 1502 1505 1508 1511 1512 1512 1515 1521 1526 1536 1535 1532 1531 1530 1531 1531 1532 1533 1533 1534 1535 1536 1537 1537 1538 1538 1539 1540 1540 1541 1541 1542 1542 1542 1543 1543 1543 1544 1544 1545 1545
1506 1508 1511 1511 1513 1517 1512 1506 1507 1509 1512 1513 1514 1516 1519 1525 1530 1532 1532 1532 1531 1531 1531 1531 1532 1533 1534 1534 1535 1536 1537 1537 1538 1539 1539 1540 1540 1541 1542 1542 1543 1543 1543 1544 1544 1544 1545 1545 1546
1507 1509 1511 1509 1511 1513 1512 1508 1509 1511 1513 1515 1517 1520 1524 1530 1532 1533 1533 1533 1532 1531 1531 1532 1532 1533 1534 1534 1535 1536 1537 1538 1538 1539 1540 1540 1541 1541 1542 1542 1543 1543 1543 1544 1544 1545 1545 1546 1547
1509 1511 1511 1512 1513 1511 1509 1510 1511 1512 1514 1517 1519 1524 1529 1534 1534 1534 1533 1533 1532 1531 1532 1532 1533 1533 1534 1534 1535 1536 1537 1537 1538 1539 1540 1540 1541 1541 1542 1542 1542 1543 1543 1544 1544 1545 1546 1546 1547
1510 1510 1511 1513 1511 1510 1510 1512 1513 1514 1517 1520 1521 1526 1531 1534 1533 1533 1533 1533 1532 1532 1532 1532 1533 1533 1534 1534 1535 1536 1536 1537 1538 1539 1539 1540 1541 1541 1542 1542 1542 1543 1543 1544 1545 1545 1546 1547 1547
1511 1509 1513 1514 1511 1511 1512 1514 1515 1517 1519 1521 1524 1527 1533 1534 1533 1532 1532 1533 1533 1533 1532 1532 1533 1533 1534 1534 1534 1535 1536 1536 1537 1538 1539 1539 1540 1541 1541 1542 1542 1543 1543 1544 1544 1545 1546 1546 1547
1512 1510 1511 1510 1512 1513 1515 1517 1518 1519 1522 1525 1526 1529 1532 1533 1533 1533 1533 1533 1533 1533 1532 1532 1533 1533 1533 1534 1534 1535 1535 1536 1536 1537 1538 1539 1539 1540 1541 1541 1542 1542 1543 1543 1544 1545 1545 1546 1547
1511 1512 1510 1510 1513 1517 1518 1519 1522 1523 1526 1528 1528 1531 1534 1534 1533 1533 1533 1533 1533 1532 1532 1532 1532 1533 1533 1533 1534 1534 1535 1535 1536 1536 1537 1538 1538 1539 1540 1540 1541 1541 1542 1542 1543 1544 1545 1546 1547
1512 1516 1517 1515 1515 1519 1520 1522 1525 1527 1528 1530 1532 1534 1535 1534 1533 1532 1532 1532 1531 1531 1532 1532 1532 1532 1533 1533 1533 1534 1534 1534 1535 1535 1536 1537 1537 1538 1538 1539 1540 1540 1541 1542 1542 1543 1544 1545 1546
1514 1519 1520 1519 1517 1520 1523 1525 1527 1528 1530 1531 1533 1534 1534 1533 1532 1531 1531 1530 1530 1531 1531 1531 1531 1531 1532 1532 1532 1533 1533 1533 1534 1534 1535 1535 1536 1537 1537 1538 1539 1539 1540 1541 1541 1542 1543 1544 1545
1516 1520 1521 1521 1521 1523 1525 1528 1529 1530 1532 1534 1534 1534 1533 1533 1532 1531 1531 1531 1531 1531 1531 1531 1531 1530 1531 1531 1531 1532 1532 1532 1533 1533 1534 1534 1535 1535 1536 1536 1537 1538 1538 1539 1540 1541 1542 1543 1544
1519 1521 1521 1523 1524 1525 1526 1529 1532 1533 1536 1536 1535 1534 1534 1533 1532 1532 1532 1531 1531 1530 1530 1530 1530 1530 1530 1530 1530 1530 1531 1531 1532 1532 1532 1533 1533 1534 1534 1535 1535 1536 1537 1537 1538 1539 1540 1541 1542
1519 1523 1524 1525 1525 1526 1528 1531 1533 1535 1536 1535 1535 1535 1534 1533 1533 1533 1533 1532 1531 1530 1530 1529 1529 1529 1529 1529 1529 1529 1530 1530 1530 1531 1531 1532 1532 1532 1532 1533 1533 1534 1535 1536 1537 1538 1538 1539 1540
1520 1522 1524 1525 1526 1527 1529 1531 1533 1534 1535 1535 1535 1534 1534 1534 1533 1533 1532 1531 1530 1529 1529 1528 1528 1528 1528 1527 1527 1528 1528 1529 1529 1529 1530 1530 1530 1531 1531 1531 1531 1532 1533 1534 1534 1535 1536 1537 1538
1521 1523 1524 1524 1524 1527 1528 1532 1533 1533 1534 1534 1534 1534 1534 1534 1533 1532 1531 1530 1530 1529 1528 1527 1527 1527 1526 1526 1526 1526 1527 1527 1527 1528 1528 1528 1529 1529 1529 1529 1529 1530 1530 1531 1532 1533 1534 1535 1536
1520 1521 1524 1523 1523 1525 1529 1533 1533 1532 1532 1533 1534 1534 1534 1534 1533 1532 1531 1530 1529 1528 1527 1527 1526 1525 1525 1525 1525 1525 1525 1525 1525 1526 1526 1526 1527 1527 1527 1527 1527 1528 1528 1529 1530 1530 1531 1532 1533
1519 1521 1520 1523 1522 1523 1527 1531 1531 1531 1531 1532 1533 1533 1533 1533 1533 1532 1531 1530 1529 1528 1527 1526 1525 1524 1523 1523 1523 1523 1523 1523 1523 1524 1524 1524 1524 1525 1525 1525 1525 1526 1526 1526 1527 1528 1529 1529 1530
1523 1521 1519 1522 1523 1524 1527 1529 1530 1530 1530 1531 1532 1532 1533 1533 1533 1532 1531 1530 1529 1528 1527 1525 1524 1523 1522 1522 1522 1522 1522 1521 1522 1522 1522 1522 1522 1522 1522 1522 1523 1523 1523 1524 1524 1525 1526 1527 1528
1522 1522 1523 1524 1524 1526 1527 1527 1528 1528 1529 1529 1531 1532 1532 1533 1533 1531 1530 1529 1528 1527 1526 1524 1523 1522 1521 1520 1520 1520 1519 1519 1519 1519 1519 1519 1519 1519 1519 1519 1520 1520 1521 1521 1522 1522 1523 1524 1525
1524 1525 1525 1525 1525 1526 1526 1525 1525 1526 1527 1528 1530 1531 1532 1532 1532 1531 1530 1528 1527 1526 1525 1524 1522 1521 1520 1519 1519 1518 1518 1517 1517 1517 1517 1517 1517 1517 1516 1516 1517 1517 1518 1518 1519 1519 1520 1521 1522
1525 1528 1528 1528 1527 1525 1526 1524 1522 1524 1526 1528 1530 1531 1532 1532 1531 1530 1529 1528 1527 1526 1524 1523 1522 1520 1519 1518 1517 1516 1516 1515 1514 1514 1514 1514 1514 1514 1514 1514 1514 1514 1514 1515 1515 1516 1517 1517 1519
1529 1528 1528 1528 1531 1529 1526 1529 1520 1521 1525 1527 1529 1530 1531 1531 1531 1530 1529 1528 1527 1525 1524 1522 1521 1519 1518 1517 1515 1514 1513 1512 1511 1511 1511 1511 1511 1511 1510 1510 1510 1511 1511 1511 1512 1513 1514 1514 1515
1530 1529 1528 1527 1528 1529 1524 1527 1522 1520 1524 1526 1528 1530 1530 1531 1531 1530 1529 1528 1526 1525 1523 1521 1519 1518 1516 1514 1513 1512 1511 1510 1509 1509 1508 1508 1507 1507 1507 1507 1507 1507 1507 1508 1508 1509 1510 1510 1511
1530 1528 1525 1525 1528 1533 1519 1523 1521 1522 1521 1524 1527 1529 1530 1530 1530 1529 1528 1527 1525 1523 1522 1520 1518 1516 1514 1513 1511 1510 1509 1507 1506 1505 1504 1504 1503 1503 1503 1503 1503 1503 1503 1504 1504 1505 1506 1506 1507
1532 1534 1535 1532 1532 1526 1513 1517 1524 1521 1520 1522 1525 1527 1529 1529 1529 1528 1527 1525 1523 1522 1520 1518 1516 1514 1512 1511 1509 1508 1506 1505 1503 1502 1501 1500 1499 1499 1499 1499 1498 1498 1499 1499 1500 1500 1501 1502 1502
1533 1534 1542 1541 1531 1521 1516 1520 1525 1523 1523 1524 1526 1527 1528 1528 1527 1526 1525 1524 1522 1520 1518 1516 1514 1512 1510 1508 1507 1505 1503 1502 1501 1499 1498 1497 1496 1495 1495 1494 1494 1494 1494 1494 1495 1495 1496 1497 1497
1534 1535 1535 1540 1535 1532 1521 1519 1525 1524 1525 1525 1526 1527 1527 1526 1526 1525 1524 1522 1521 1519 1517 1515 1512 1510 1508 1506 1504 1502 1501 1499 1497 1496 1495 1493 1492 1491 1491 1490 1489 1489 1489 1489 1490 1490 1490 1491 1492
1536 1536 1538 1540 1540 1533 1518 1515 1522 1526 1526 1526 1526 1526 1526 1526 1525 1523 1522 1521 1519 1517 1515 1513 1511 1508 1506 1504 1502 1499 1498 1496 1494 1492 1491 1489 1488 1487 1486 1485 1484 1484 1484 1484 1484 1484 1484 1485 1486
1537 1538 1537 1537 1535 1538 1533 1527 1522 1522 1524 1525 1526 1525 1525 1524 1523 1522 1520 1519 1517 1515 1513 1510 1508 1506 1503 1501 1499 1496 1494 1492 1491 1489 1487 1485 1484 1483 1481 1480 1479 1479 1478 1478 1478 1478 1479 1479 1479
1534 1534 1536 1543 1539 1534 1535 1533 1523 1523 1523 1524 1525 1525 1524 1523 1522 1520 1518 1516 1514 1512 1510 1507 1505 1503 1501 1498 1496 1493 1491 1489 1487 1485 1483 1481 1479 1478 1476 1475 1474 1473 1472 1472 1472 1472 1472 1473 1473